Location: Bannatyne
(13.0833°N, 59.5333°W)
Time: 09:42:33
(UTC+00:00)

Vanguard 2 Rocket - Pass Details

Date: 24 January 2020
Orbit: 554 x 3326 km, 32.9° (Epoch: 28 March)

Event Time Altitude Azimuth Distance (km) Brightness Sun altitude
Rises 19:31:33 0° 263° (W) 6,658 12.2 30.8°
Reaches altitude 10° 19:38:34 10° 245° (WSW) 6,013 12.7 29.4°
Maximum altitude 19:49:11 17° 211° (SSW) 5,679 12.2 27.2°
Drops below altitude 10° 20:00:10 10° 177° (S) 6,152 11.5 24.8°
Sets 20:07:47 0° 159° (SSE) 6,856 11.5 23.2°
